Flag for Austria Weather past 2 weeks in Klagenfurt, Carinthia, Austria

Now
59 °F

Passing clouds.


Feels Like: 59 °F
Forecast: 44 / 76 °F
Wind: 5 mph from East

Location: Klagenfurt-Flughafen

Current Time: May 28, 2015 at 11:51:15 AM

Latest Report: May 28, 2015 at 10:50 AM


Visibility: N/A

Pressure: 30.09 "Hg

Humidity: 39%

Dew point: 34 °F

Location of KlagenfurtLocation

Historic Weather in Klagenfurt — Graph

°F

Klagenfurt temperature yesterday

Maximum temperature yesterday: 61 °F (at 2:50 PM)
Minimum temperature yesterday: 46 °F (at 4:50 AM)
Average temperature yesterday: 54 °F

Past Weeks' High & Low Weather Summary

 TemperatureHumidityPressure
High82 °F (May 13, 3:50 PM)100% (May 15, 2:50 AM)30.24 "Hg (May 15, 2:50 AM)
Low43 °F (May 21, 8:50 AM)28% (May 19, 4:50 PM)29.71 "Hg (May 19, 4:50 PM)
Average58 °F74%29.97 "Hg
* Reported May 13 10:20 AM — May 28 10:50 AM, Klagenfurt, Weather by CustomWeather, © 2015

Note: Actual official high and low records may vary slightly from our data, if they occured in-between our weather recording intervals... More about our weather records

Advertising

Klagenfurt weather history for previous 24 hours

 ConditionsComfort  
Time TempWeatherWind HumidityBarometerVisibility
10:50 AM
Thu, May 28
59 °FPassing clouds.5 mph39%30.09 "HgN/A
10:20 AM59 °FPassing clouds.5 mph42%30.09 "HgN/A
9:50 AM55 °FPassing clouds.2 mph51%30.12 "HgN/A
9:20 AM55 °FPassing clouds.3 mph51%30.12 "HgN/A
8:50 AM54 °FPassing clouds.2 mph58%30.12 "HgN/A
8:20 AM52 °FPassing clouds.3 mph62%30.12 "HgN/A
7:50 AM50 °FPassing clouds.2 mph67%30.12 "HgN/A
7:20 AM48 °FPassing clouds.2 mph71%30.12 "HgN/A
6:50 AM45 °FSunny.3 mph81%30.12 "Hg10 mi
6:20 AM43 °FSunny.5 mph87%30.12 "Hg10 mi
5:50 AM43 °FPassing clouds.3 mph87%30.12 "HgN/A
5:20 AM43 °FQuite cool.5 mph87%30.09 "HgN/A
4:50 AM43 °FPassing clouds.6 mph87%30.09 "HgN/A
4:20 AM45 °FPassing clouds.5 mph81%30.09 "HgN/A
3:50 AM46 °FPassing clouds.5 mph82%30.09 "HgN/A
3:20 AM46 °FPassing clouds.2 mph82%30.09 "HgN/A
2:50 AM46 °FPassing clouds.1 mph82%30.09 "HgN/A
2:20 AM48 °FPassing clouds.2 mph76%30.12 "HgN/A
1:50 AM48 °FOvercast.2 mph76%30.12 "HgN/A
1:20 AM48 °FPassing clouds.No wind76%30.12 "HgN/A
12:50 AM48 °FPartly cloudy.1 mph71%30.12 "HgN/A
12:20 AM50 °FPassing clouds.1 mph67%30.12 "HgN/A
11:50 PM
Wed, May 27
50 °FPassing clouds.2 mph67%30.12 "HgN/A
11:20 PM50 °FPassing clouds.2 mph67%30.12 "HgN/A
10:50 PM50 °FPassing clouds.1 mph62%30.12 "HgN/A
10:20 PM50 °FPassing clouds.2 mph62%30.12 "HgN/A
9:50 PM52 °FPassing clouds.2 mph58%30.12 "HgN/A
9:20 PM54 °FPartly sunny.3 mph51%30.09 "HgN/A
8:50 PM55 °FPartly sunny.7 mph47%30.09 "HgN/A
8:20 PM55 °FPartly sunny.7 mph47%30.09 "HgN/A
7:50 PM55 °FPartly sunny.7 mph47%30.09 "HgN/A
7:20 PM59 °FPartly sunny.7 mph39%30.09 "HgN/A
6:50 PM59 °FPartly sunny.7 mph39%30.09 "HgN/A
6:20 PM59 °FPartly sunny.8 mph39%30.09 "HgN/A
5:50 PM61 °FPartly sunny.7 mph34%30.07 "HgN/A
5:20 PM61 °FPartly sunny.9 mph34%30.09 "HgN/A
4:50 PM59 °FPartly sunny.8 mph39%30.09 "HgN/A
4:20 PM59 °FPartly sunny.9 mph39%30.09 "HgN/A
3:50 PM59 °FPartly sunny.13 mph36%30.09 "HgN/A
3:20 PM61 °FPartly sunny.12 mph34%30.09 "HgN/A
2:50 PM61 °FPartly sunny.9 mph36%30.07 "HgN/A
2:20 PM59 °FPartly sunny.7 mph36%30.09 "HgN/A
1:50 PM59 °FPartly sunny.10 mph36%30.09 "HgN/A
1:20 PM59 °FPartly sunny.9 mph36%30.09 "HgN/A
12:50 PM59 °FPartly sunny.12 mph36%30.07 "HgN/A
12:20 PM59 °FPartly sunny.10 mph36%30.07 "HgN/A
11:50 AM59 °FPartly sunny.12 mph36%30.07 "HgN/A
11:20 AM57 °FPartly sunny.13 mph41%30.07 "HgN/A
Weather by CustomWeather, © 2015

See weather overviewHow to use our weather pages